Location: Giershofen
(50.5368°N, 7.6607°E)
Time: 01:33:52
(UTC+00:00)

Daily predictions for brighter satellites

Satellite Brightness Start Highest point End
(mag) Time Altitude Azimuth Time Altitude Azimuth Time Altitude Azimuth
ATLAS 2AS CENTAUR R/B 3.8 02:28:20 43° E 02:28:20 43° E 02:33:21 10° ESE
Lacrosse 5 4.0 02:57:41 22° NE 02:57:41 22° NE 02:59:30 10° ENE
USA 234 3.9 02:50:03 10° ENE 02:54:47 49° NE 02:54:47 49° NE
SJ 16-02 4.2 03:04:04 12° NE 03:04:04 12° NE 03:04:30 10° NE
Cosmos 2333 Rocket 4.4 03:02:35 17° NNE 03:04:08 18° NNE 03:08:05 10° ENE
ATLAS 5 CENTAUR R/B 4.5 03:07:21 65° SW 03:07:45 65° SW 03:39:42 10° SSE
Lacrosse 5 rocket 4.5 03:14:38 10° ENE 03:14:38 10° ENE 03:14:42 10° ENE
COSMOS 2455 4.0 03:16:30 34° SE 03:16:30 34° SE 03:19:46 10° SE
CZ-2C R/B 4.1 03:11:20 10° NNE 03:15:32 29° E 03:16:09 28° ESE
Cosmos 2082 Rocket 3.5 03:30:54 31° NNE 03:30:54 31° NNE 03:33:54 10° NNE
ATLAS CENTAUR R/B 3.4 03:28:11 29° SE 03:28:27 29° ESE 03:32:35 10° ENE
Cosmos 1833 Rocket 4.3 03:37:12 24° N 03:37:12 24° N 03:39:38 10° NNE
SL-4 R/B 4.0 03:36:54 28° SE 03:36:54 28° SE 03:39:16 10° SE
NOSS 3-4 (A) 3.7 03:36:44 71° NNW 03:37:36 84° NE 03:45:13 10° SE
NOSS 3-4 (C) 3.7 03:36:49 70° NNW 03:37:42 83° NE 03:45:19 10° SE
Cosmos 1151 Rocket 4.4 03:40:44 37° ENE 03:40:51 37° ENE 03:44:54 10° SE
NOSS 3-3 (A) 3.8 03:48:21 83° W 03:48:34 86° NW 03:55:26 10° NE
NOSS 3-3 (C) 3.8 03:48:26 83° WSW 03:48:40 87° NW 03:55:32 10° NE
Gbstr 26 Del rocket 4.5 03:51:52 30° ENE 03:51:52 30° ENE 03:53:52 10° ENE
Cosmos 2360 Rocket 2.6 03:50:28 43° N 03:52:05 60° NE 03:57:41 10° SE
Cosmos 1328 Rocket 4.2 03:55:27 51° E 03:55:27 51° E 03:59:17 10° SSE
IDEFIX/ARIANE 42P 4.0 03:51:31 10° N 03:53:43 25° N 03:53:43 25° N
COSMOS 2428 4.3 03:53:17 17° N 03:56:44 30° NE 04:01:44 10° ESE
Cosmos 2237 Rocket 4.5 03:53:18 11° N 03:56:47 18° NNE 04:00:33 10° ENE
CZ-4C R/B 3.8 03:57:37 26° NNW 03:58:28 27° N 04:04:16 10° NE
SL-16 R/B 2.6 04:00:21 47° S 04:00:21 47° S 04:04:29 10° SSE
BREEZE-M DEB (TANK) 4.3 03:57:37 41° W 04:01:54 65° SSW 04:06:46 10° SE
Cosmos 1048 Rocket 4.4 04:02:41 36° N 04:04:49 64° ENE 04:10:07 10° SE
Cosmos 2322 Rocket 2.2 04:05:40 61° SSW 04:05:40 61° SSW 04:10:41 10° SSE
STARLINK-35 4.5 04:06:30 45° SE 04:06:30 45° SE 04:10:13 10° ENE
Cosmos 2151 3.7 04:07:26 47° NNE 04:07:26 47° NNE 04:10:36 10° NNE
SKYMED 2 4.5 04:02:35 10° SE 04:06:45 47° ENE 04:09:18 21° N
STARLINK-26 4.4 04:07:18 49° SE 04:07:18 49° SE 04:10:51 10° ENE
STARLINK-51 4.4 04:08:05 47° SE 04:08:05 47° SE 04:11:53 10° ENE
STARLINK-30 4.4 04:09:41 48° SE 04:09:41 48° SE 04:13:32 10° ENE
Cosmos 1459 Rocket 4.0 04:03:22 10° S 04:09:35 80° E 04:15:57 10° NNE
COBE Rocket 3.9 04:05:35 10° SSE 04:10:42 84° ENE 04:13:10 31° N
H-2A R/B 3.4 04:06:21 10° NNE 04:09:24 42° N 04:09:24 42° N
STARLINK-33 4.3 04:11:18 49° SE 04:11:18 49° SE 04:15:14 10° ENE
Meteor 2-20 Rocket 4.3 04:09:53 39° NNW 04:12:09 64° W 04:18:12 10° S
STARLINK-50 4.2 04:12:53 50° SSE 04:12:53 50° SSE 04:16:54 10° ENE
Cosmos 2298 Rocket 4.4 04:09:12 10° S 04:14:21 65° ESE 04:19:37 10° NNE
CZ-4B R/B 4.1 04:10:50 10° NNE 04:12:50 31° NNE 04:12:50 31° NNE
STARLINK-56 4.1 04:16:05 52° SSE 04:16:11 53° SSE 04:20:13 10° ENE
ATLAS 2AS CENTAUR R/B 2.9 04:15:49 47° W 04:17:20 54° WSW 04:24:10 10° SSE
Starlink (trailer) 4.1 04:17:39 53° SSE 04:17:48 54° SSE 04:21:52 10° ENE
ALOS 4.2 04:13:55 10° NNE 04:18:02 29° E 04:22:07 10° SSE
STARLINK-38 4.0 04:19:18 54° SSE 04:19:30 55° SSE 04:23:34 10° ENE
STARLINK-65 4.0 04:20:52 55° SSE 04:21:08 56° SSE 04:25:12 10° ENE
Cosmos 1408 Rocket 3.8 04:19:01 10° S 04:23:18 67° E 04:27:39 10° NNE
Cosmos 468 4.4 04:21:40 41° NNW 04:23:34 85° WSW 04:28:50 10° SSE
STARLINK-60 4.1 04:24:24 45° ENE 04:24:24 45° ENE 04:26:58 10° E
Cosmos 2016 Rocket 4.2 04:17:43 10° S 04:23:59 73° E 04:30:21 10° NNE
STARLINK-69 3.9 04:25:44 56° S 04:26:10 61° SSE 04:30:15 10° ENE
STARLINK-66 3.9 04:27:17 55° S 04:27:48 61° SSE 04:31:54 10° ENE
STARLINK-41 3.9 04:28:52 55° SSW 04:29:26 62° SSE 04:33:33 10° ENE
STARLINK-64 3.8 04:30:29 55° SSW 04:31:06 64° SSE 04:35:13 10° ENE
Cosmos 839 Rocket 4.4 04:30:14 40° WNW 04:31:17 43° NW 04:37:09 10° NNE
STARLINK-70 3.8 04:32:05 54° SSW 04:32:47 65° SSE 04:36:54 10° ENE
STARLINK-68 3.8 04:33:50 55° SSW 04:34:32 68° SSE 04:38:40 10° ENE
STARLINK-58 3.8 04:35:15 52° SSW 04:36:03 68° SSE 04:40:11 10° ENE
Cosmos 1606 3.0 04:35:01 21° N 04:37:27 64° ENE 04:41:14 10° SSE
STARLINK-62 3.7 04:37:01 52° SW 04:37:52 70° SSE 04:42:00 10° ENE
Lacrosse 5 2.5 04:36:54 38° NW 04:37:52 42° N 04:42:42 10° ENE
Cosmos 2322 3.8 04:35:07 21° NNW 04:39:03 78° ENE 04:44:44 10° SSE
SJ 16-02 3.0 04:41:06 21° NNW 04:41:06 21° NNW 04:42:58 10° N
USA 234 3.7 04:32:52 10° ENE 04:39:08 51° N 04:42:07 30° WNW
STARLINK-63 3.7 04:38:30 50° SW 04:39:25 70° SSE 04:43:34 10° ENE
RESURS DK-1 4.2 04:38:06 14° N 04:40:50 26° NE 04:44:23 10° ESE
Cosmos 2219 Rocket 2.9 04:36:08 14° NNW 04:40:51 52° NE 04:46:23 10° SE
STARLINK 3.8 04:39:49 46° SW 04:40:53 68° SSE 04:45:00 10° ENE
Cosmos 1898 Rocket 4.3 04:41:34 33° NW 04:41:34 33° NW 04:45:54 10° N
Cosmos 1766 Rocket 3.5 04:41:26 54° W 04:41:36 55° WNW 04:45:55 10° N
Cosmos 1816 Rocket 4.5 04:35:24 10° N 04:41:46 89° E 04:48:01 10° S
Cosmos 494 Rocket 4.2 04:37:52 16° NNW 04:42:04 72° ENE 04:47:17 10° SSE
STARLINK-72 3.7 04:41:34 46° SW 04:42:39 71° SSE 04:46:47 10° ENE
Cosmos 1937 Rocket 3.8 04:43:39 40° WNW 04:43:47 40° WNW 04:48:39 10° NNE
STARLINK-48 3.4 04:44:48 61° NW 04:45:15 68° NNW 04:49:09 10° ENE
Cosmos 1825 2.0 04:42:11 10° S 04:45:57 90° NNE 04:49:45 10° N
STARLINK-59 3.7 04:44:54 45° SW 04:46:05 75° SSE 04:50:14 10° ENE
STARLINK-57 3.6 04:46:26 44° SW 04:47:41 76° SSE 04:51:50 10° ENE
STARLINK-52 3.3 04:48:35 57° NNW 04:48:57 62° N 04:52:27 10° E
Cosmos 2100 Rocket 4.0 04:43:04 10° SSW 04:49:04 53° WNW 04:55:06 10° N
Cosmos 2333 Rocket 2.7 04:44:36 14° NNW 04:49:38 62° NE 04:55:21 10° SE
Cosmos 1933 3.1 04:47:18 22° NNW 04:49:48 78° W 04:53:48 10° S
Tsikada Rocket 4.0 04:43:37 10° N 04:50:03 85° W 04:56:22 10° S
Lacrosse 5 rocket 0.8 04:50:17 62° WNW 04:50:51 87° SSW 04:54:26 10° SE
Cosmos 1269 Rocket 4.2 04:46:17 13° NNW 04:51:04 73° ENE 04:56:22 10° SSE
STARLINK-28 3.6 04:49:43 41° WSW 04:51:05 79° SSE 04:55:14 10° ENE
SL-08 R/B 4.3 04:46:12 10° S 04:52:19 86° W 04:58:27 10° N
STARLINK-75 3.6 04:51:00 42° WSW 04:52:19 85° SSE 04:56:30 10° ENE
Abrixas rocket 2.8 04:52:40 40° S 04:53:03 42° SSE 04:55:57 10° E
STARLINK-53 3.6 04:51:50 39° WSW 04:53:18 81° SSE 04:57:27 10° ENE
CZ-2C R/B 2.7 04:49:22 10° N 04:53:55 41° WNW 04:55:30 31° WSW
STARLINK-54 3.6 04:52:53 39° WSW 04:54:22 82° SSE 04:58:32 10° ENE
COSMO-SKYMED 1 2.5 04:50:25 10° S 04:54:42 61° WSW 04:57:49 18° NNW
Cosmos 1315 Rocket 4.4 04:51:28 10° N 04:55:13 36° ENE 04:58:59 10° SE
MSX 4.4 04:50:37 10° N 04:55:44 34° WNW 04:57:24 29° W
Meteor 1-31 Rocket 3.5 04:53:57 10° N 04:56:44 34° NW 04:56:44 34° NW
STARLINK-37 3.6 04:57:04 36° WSW 04:58:43 85° SSE 05:02:53 10° ENE
COSMOS 2455 4.1 04:59:43 21° WSW 04:59:43 21° WSW 05:03:21 10° SSW
STARLINK-55 3.6 04:57:34 35° WSW 04:59:16 85° SSE 05:03:26 10° ENE
USA 116 3.3 04:56:54 10° SSE 05:00:19 80° WSW 05:03:39 13° NNW
STARLINK-34 3.5 04:59:17 34° WSW 05:01:02 87° SSE 05:05:12 10° ENE
STARLINK-29 3.2 05:00:31 46° NW 05:01:21 69° NNE 05:04:51 10° E
Cosmos 1484 Rocket 2.7 04:58:19 10° N 05:02:19 67° WNW 05:06:18 10° SSW
STARLINK-81 3.6 05:00:37 32° WSW 05:02:30 85° SSE 05:06:40 10° ENE
STARLINK-24 3.6 05:00:52 33° WSW 05:02:42 88° SSE 05:06:53 10° ENE
MOS 1-B 4.3 04:57:03 10° NNE 05:02:53 90° E 05:08:42 10° SSW
Cosmos 1125 Rocket 3.5 05:00:15 10° SSW 05:05:32 84° ESE 05:10:49 10° NNE
STARLINK-77 3.6 05:03:46 30° WSW 05:05:46 87° SSE 05:09:56 10° ENE
FALCON 9 DEB 3.1 05:05:29 42° WNW 05:06:30 75° NNE 05:09:56 10° ESE
ATLAS CENTAUR R/B 1.8 05:04:27 24° WSW 05:07:14 56° NW 05:11:53 10° NE
STARLINK-25 3.6 05:05:21 29° WSW 05:07:26 88° S 05:11:37 10° ENE
Cosmos 1408 3.1 05:08:21 36° WNW 05:08:21 36° WNW 05:11:42 10° N
STARLINK-71 3.5 05:07:14 29° WSW 05:09:18 87° NNW 05:13:29 10° ENE
Cosmos 1802 Rocket 4.2 05:04:20 10° SSW 05:10:33 50° WNW 05:16:45 10° N
STARLINK-79 3.5 05:08:36 27° WSW 05:10:48 89° NNW 05:14:58 10° ENE
STARLINK-78 3.5 05:10:12 26° WSW 05:12:27 88° NNW 05:16:37 10° ENE
Cosmos 1782 3.1 05:08:51 10° N 05:12:51 68° ENE 05:16:47 10° SSE
Cosmos 2082 Rocket 3.7 05:12:47 17° NW 05:13:35 18° NNW 05:17:22 10° N
SL-4 R/B 4.0 05:12:32 18° WSW 05:13:36 19° SW 05:16:58 10° S
Cosmos 2150 Rocket 4.2 05:08:47 10° SW 05:14:06 52° WNW 05:19:22 10° NNE
Cosmos 372 Rocket 4.1 05:09:58 10° SW 05:14:58 50° WNW 05:19:58 10° NNE
SL-16 R/B 4.1 05:11:15 10° NNW 05:15:45 23° NE 05:20:12 10° E
STARLINK-49 3.5 05:13:23 25° WSW 05:15:46 86° NNW 05:19:56 10° ENE
Cosmos 2173 Rocket 4.4 05:10:58 10° SW 05:16:42 38° WNW 05:22:24 10° N
STARLINK-27 3.5 05:15:00 24° WSW 05:17:26 85° NNW 05:21:36 10° ENE
PAYLOAD B 4.2 05:12:35 10° NNE 05:18:08 87° WNW 05:23:38 10° SSW
Cosmos 1151 Rocket 4.0 05:17:41 25° WNW 05:18:15 26° W 05:21:51 10° SW
Meteor PRIRODA 4.2 05:15:21 10° N 05:18:42 33° WNW 05:22:00 10° SW
STARLINK-74 3.5 05:16:35 23° WSW 05:19:06 84° NNW 05:23:16 10° ENE
Cosmos 1833 Rocket 4.5 05:18:54 13° NW 05:19:54 14° NNW 05:22:39 10° N
STARLINK-39 3.5 05:18:09 22° WSW 05:20:45 83° NNW 05:24:54 10° ENE
CZ-4B DEB 4.1 05:16:33 10° NNE 05:22:02 73° WNW 05:27:30 10° SSW
STARLINK 3.5 05:19:47 22° WSW 05:22:25 82° NNW 05:26:36 10° ENE
NOAA 6 4.1 05:17:25 10° NNE 05:22:35 82° ESE 05:27:42 10° SSW
STARLINK-42 3.5 05:20:28 22° WSW 05:23:06 80° NNW 05:27:16 10° ENE
Cosmos 1437 3.1 05:21:06 10° SW 05:23:57 36° WNW 05:26:50 10° N
Meteor 1-26 Rocket 4.2 05:18:49 10° NNW 05:24:26 60° W 05:29:52 10° S
STARLINK-21 3.6 05:23:01 20° WSW 05:25:49 80° NNW 05:29:59 10° ENE
Cosmos 1400 Rocket 3.1 05:23:42 10° NNW 05:27:35 44° W 05:31:23 10° SSW
Cosmos 1633 4.3 05:24:22 10° SSE 05:27:41 35° E 05:31:03 10° NNE
STARLINK-45 3.6 05:24:56 20° W 05:27:43 76° NNW 05:31:52 10° ENE
COSMOS 2487 3.5 05:28:39 23° WNW 05:29:19 25° WNW 05:32:17 10° N
Cosmos 2233 Rocket 4.0 05:23:23 10° SSW 05:29:41 76° WNW 05:36:03 10° N
STARLINK-76 3.6 05:27:48 18° W 05:30:47 77° NNW 05:34:57 10° ENE
Timation 2 Rocket 4.3 05:26:00 10° SSW 05:31:57 65° ESE 05:37:53 10° NE
Cosmos 2061 Rocket 4.4 05:26:16 10° SW 05:32:03 39° WNW 05:37:52 10° N
STARLINK 3.6 05:29:23 18° W 05:32:26 76° NNW 05:36:36 10° ENE
STARLINK-32 3.6 05:30:59 17° W 05:34:05 75° NNW 05:38:15 10° ENE
Okean O Rocket 1.5 05:30:27 10° N 05:34:48 71° WNW 05:39:07 10° SSW
IDEFIX/ARIANE 42P 4.4 05:33:20 10° NNW 05:34:31 12° NW 05:34:31 12° NW
Cosmos 2360 Rocket 3.1 05:32:17 16° WNW 05:35:43 28° WSW 05:40:25 10° SSW
STARLINK-40 3.6 05:32:34 17° W 05:35:45 75° NNW 05:39:54 10° ENE
Cosmos 2228 Rocket 3.6 05:31:41 10° NNW 05:35:57 39° W 05:40:12 10° SSW
Gbstr 26 Del rocket 2.6 05:34:24 19° WNW 05:36:58 73° N 05:40:45 10° E
STARLINK-44 3.6 05:34:11 16° W 05:37:25 74° NNW 05:41:35 10° ENE
STARLINK-36 3.6 05:35:48 16° W 05:39:06 73° NNW 05:43:16 10° ENE
Cosmos 1707 Rocket 3.7 05:35:16 10° N 05:39:47 80° E 05:44:15 10° SSE
STARLINK-61 3.6 05:37:06 17° W 05:40:06 64° N 05:44:07 10° ENE
Helios 1A Rocket 2.9 05:36:13 10° N 05:40:16 60° WNW 05:44:17 10° SSW
COSMOS 2428 2.8 05:35:47 10° NW 05:41:28 65° WSW 05:47:07 10° SSE
STARLINK-80 3.6 05:39:00 18° WNW 05:41:43 58° N 05:45:31 10° E
SL-16 R/B 4.0 05:42:17 11° W 05:42:17 11° W 05:43:17 10° WSW
Cosmos 2237 Rocket 2.7 05:36:27 10° NNW 05:42:06 60° NE 05:47:41 10° SE
H-2A R/B 4.3 05:43:25 10° NNW 05:45:39 14° NW 05:45:57 14° WNW
STARLINK-35 3.6 05:42:10 14° W 05:45:45 70° NNW 05:49:54 10° ENE
Cosmos 1833 4.3 05:40:17 10° SW 05:45:48 55° NW 05:51:22 10° NNE
Cosmos 1805 Rocket 3.5 05:41:29 10° SSW 05:45:49 83° W 05:50:11 10° N
STARLINK-26 3.6 05:42:44 14° W 05:46:11 67° N 05:50:17 10° ENE
Cosmos 1743 Rocket 4.1 05:42:58 10° SW 05:46:57 35° WNW 05:50:57 10° N
STARLINK-51 3.6 05:43:46 13° W 05:47:25 70° NNW 05:51:34 10° ENE
Cosmos 2322 Rocket 3.9 05:47:33 11° W 05:48:01 11° W 05:49:47 10° WSW
STARLINK-43 3.5 05:45:32 16° WNW 05:48:27 63° N 05:52:10 10° E
BREEZE-M DEB (TANK) 1.4 05:47:00 16° W 05:48:34 55° S 05:50:40 10° ESE
CZ-4C R/B 3.8 05:42:56 10° NW 05:48:54 35° NNE 05:55:49 10° E
STARLINK-30 3.6 05:45:21 13° W 05:49:04 69° N 05:53:13 10° ENE
CZ-4B R/B 4.4 05:47:18 10° NNW 05:48:56 13° NW 05:48:56 13° NW
STARLINK-33 3.6 05:46:59 12° W 05:50:46 68° NNW 05:54:55 10° ENE
STARLINK-50 3.7 05:48:35 12° W 05:52:26 68° N 05:56:35 10° ENE
METEOR-M 4.3 05:47:33 10° N 05:52:42 49° WNW 05:57:48 10° SW
ALOS 2.7 05:51:12 10° N 05:55:33 39° WNW 05:59:54 10° SW
STARLINK-56 3.7 05:51:46 11° W 05:55:45 67° N 05:59:53 10° ENE
Radarsat Rocket 4.0 05:50:36 10° NNE 05:56:27 89° WNW 06:02:27 10° SSW
Starlink (trailer) 3.7 05:53:20 10° W 05:57:23 66° N 06:01:33 10° ENE
STARLINK-38 3.7 05:54:58 10° W 05:59:06 66° N 06:03:14 10° ENE
SMAP 3.3 05:54:44 10° NNE 05:59:25 75° ESE 06:04:05 10° S
SJ-7 4.5 05:55:49 10° N 05:59:55 57° WNW 06:03:56 10° SSW
STARLINK-60 3.5 05:57:27 12° WNW 06:00:23 50° SSW 06:03:39 10° SE
STARLINK-65 3.7 05:56:37 10° W 06:00:45 65° N 06:04:52 10° ENE
Cosmos 1464 Rocket 4.2 05:55:03 10° S 06:01:21 81° E 06:07:35 10° NNE
FENGYUN 3A 4.0 05:58:33 10° N 06:03:39 43° WNW 06:08:43 10° SW
AQUARIUS 4.4 05:59:23 10° NNE 06:03:55 77° ESE 06:08:24 10° S
STARLINK-69 3.7 06:01:40 10° W 06:05:48 64° N 06:09:56 10° ENE
ATLAS 2AS CENTAUR R/B 4.5 06:04:00 10° W 06:06:31 12° W 06:08:58 10° WSW
Cosmos 1818 3.9 06:01:23 10° SSW 06:06:48 72° SE 06:12:16 10° NE
STARLINK-66 3.7 06:03:19 10° W 06:07:26 64° N 06:11:34 10° ENE
Cosmos 1980 3.8 06:02:23 10° NNW 06:08:05 89° WSW 06:13:46 10° SSE
Meteor 1-10 Rocket 4.2 06:02:47 10° NNW 06:08:22 69° W 06:14:00 10° S
STARLINK-41 3.7 06:04:58 10° W 06:09:05 63° N 06:13:13 10° ENE
STARLINK-64 3.7 06:06:39 10° W 06:10:46 63° N 06:14:53 10° ENE
Cosmos 1633 Rocket 3.2 06:06:41 10° S 06:11:02 81° E 06:15:25 10° NNE
Cosmos 1238 Rocket 4.4 06:06:21 10° SW 06:12:07 36° WNW 06:17:14 10° N
CZ-4 R/B 3.6 06:09:01 10° NE 06:12:26 29° E 06:15:48 10° SSE
STARLINK-70 3.7 06:08:19 10° W 06:12:27 63° N 06:16:35 10° ENE
Cosmos 1072 Rocket 4.5 06:07:07 10° SSW 06:13:16 80° W 06:19:25 10° N
STARLINK-68 3.8 06:10:06 10° W 06:14:14 62° N 06:18:21 10° ENE
Sich 1 3.0 06:10:06 10° SSW 06:14:19 59° WNW 06:18:34 10° N
STARLINK-58 3.8 06:11:37 10° W 06:15:45 62° N 06:19:52 10° ENE
SAR-Lupe-2 3.5 06:12:34 10° S 06:16:08 74° WSW 06:19:44 10° NNW
ADEOS Rocket 3.6 06:08:44 10° S 06:16:26 77° WSW 06:23:39 10° NNW
STARLINK-62 3.8 06:13:27 10° W 06:17:34 62° N 06:21:41 10° ENE
IRS-1C Rocket 4.1 06:12:30 10° NNE 06:17:48 78° WNW 06:23:03 10° SSW
RESURS DK-1 2.8 06:15:05 10° NW 06:19:04 45° WSW 06:23:01 10° S
STARLINK-63 3.8 06:15:01 10° W 06:19:08 62° N 06:23:15 10° ENE
STARLINK 3.8 06:16:27 10° W 06:20:34 62° N 06:24:41 10° ENE
Lacrosse 5 2.5 06:16:44 10° WNW 06:21:38 46° NNE 06:26:32 10° E
USA 234 3.5 06:15:15 10° E 06:21:43 66° NNE 06:28:12 10° WNW
Meteor 2-3 Rocket 4.4 06:16:48 10° SW 06:22:00 33° WNW 06:27:15 10° N
